This demonstration page uses our WeatherBlox Daily Observations layout. Learn more.

Left ArrowRight Arrow

36.19886, -115.1175

Hourly Observations for November 30, 2021

Temp ( °F °C ) Dew Point ( °F °C ) Humidity (%) Winds ( mph kmh ) Pressure ( in mb ) Visibility ( mi km ) Precip ( " mm )
12:53 am 00:53 Clear 56 13.3 19 -7.2 24 24 NNW 9 15 30.14 1021 10 16 N/A
1:53 am 01:53 Clear 55 12.8 20 -6.7 25 25 NW 3 6 30.14 1021 10 16 N/A
2:53 am 02:53 Clear 57 13.9 19 -7.2 23 23 WNW 3 6 30.13 1020 10 16 N/A
3:53 am 03:53 Clear 51 10.6 19 -7.2 28 28 WNW 8 13 30.15 1021 10 16 N/A
4:53 am 04:53 Clear 52 11.1 20 -6.7 28 28 NNW 9 15 30.16 1021 10 16 N/A
5:53 am 05:53 Clear 52 11.1 19 -7.2 27 27 NNW 5 7 30.19 1022 10 16 N/A
6:53 am 06:53 Sunny 55 12.8 20 -6.7 25 25 NW 7 11 30.20 1023 10 16 N/A
7:53 am 07:53 Sunny 62 16.7 21 -6.1 21 21 NW 14 22 30.22 1023 10 16 N/A
8:53 am 08:53 Sunny 63 17.2 23 -5 22 22 N N/A 30.25 1024 10 16 N/A
9:53 am 09:53 Sunny 68 20 23 -5 18 18 N N/A 30.25 1024 10 16 N/A
10:53 am 10:53 Sunny 73 22.8 23 -5 15 15 ENE 5 7 30.21 1023 10 16 N/A
11:53 am 11:53 Sunny 73 22.8 23 -5 15 15 E 3 6 30.18 1022 10 16 N/A
12:53 pm 12:53 Sunny 77 25 23 -5 13 13 E 3 6 30.15 1021 10 16 N/A
1:53 pm 13:53 Sunny 77 25 24 -4.4 14 14 ESE 3 6 30.14 1021 10 16 N/A
2:53 pm 14:53 Sunny 78 25.6 24 -4.4 13 13 SE 7 11 30.12 1020 10 16 N/A
3:53 pm 15:53 Sunny 78 25.6 23 -5 13 13 N N/A 30.13 1020 10 16 N/A
4:53 pm 16:53 Clear 73 22.8 22 -5.6 15 15 W 6 9 30.15 1021 10 16 N/A
5:53 pm 17:53 Clear 70 21.1 21 -6.1 16 16 NW 9 15 30.16 1021 10 16 N/A
6:53 pm 18:53 Clear 66 18.9 20 -6.7 17 17 NNW 8 13 30.17 1022 10 16 N/A
7:53 pm 19:53 Clear 65 18.3 20 -6.7 18 18 NW 7 11 30.18 1022 10 16 N/A
8:53 pm 20:53 Clear 64 17.8 19 -7.2 18 18 NNW 10 17 30.20 1023 10 16 N/A
9:53 pm 21:53 Clear 64 17.8 19 -7.2 18 18 N 9 15 30.20 1023 10 16 N/A
10:53 pm 22:53 Clear 64 17.8 19 -7.2 18 18 N 9 15 30.20 1023 10 16 N/A
11:53 pm 23:53 Clear 56 13.3 21 -6.1 26 26 WSW 3 6 30.22 1023 10 16 N/A

Powered by AerisWeather